Location: The Saddle
(36.8333°N, 80.3417°W)
Time: 14:20:34
(UTC-04:00)

Courier 1B - Pass Details

Date: 20 September 2024
Orbit: 962 x 1208 km, 28.3° (Epoch: 06 October)

Event Time Altitude Azimuth Distance (km) Brightness Sun altitude
Rises 17:30:41 0° 265° (W) 3,884 12.1 20.9°
Reaches altitude 10° 17:33:44 10° 255° (WSW) 2,966 12.4 20.3°
Maximum altitude 17:39:56 30° 197° (SSW) 1,924 9.7 19.1°
Drops below altitude 10° 17:46:24 10° 140° (SE) 3,096 9.9 17.9°
Sets 17:49:40 0° 130° (SE) 4,080 10.4 17.2°
